Location: Cantaing
(50.1487°N, 3.1675°E)
Time: 16:11:14
(UTC+00:00)

SJ 16-02 - Pass Details

Date: 14 January 2026
Orbit: 582 x 594 km, 75.0° (Epoch: 18 February)

Event Time Altitude Azimuth Distance (km) Brightness Sun altitude
Rises 06:14:04 0° 163° (SSE) 2,793 5.2 -13.4°
Reaches altitude 10° 06:16:41 10° 147° (SSE) 1,899 4.6 -13.0°
Maximum altitude 06:19:50 21° 98° (E) 1,342 4.2 -12.6°
Drops below altitude 10° 06:23:01 10° 50° (NE) 1,912 4.3 -12.1°
Sets 06:25:39 0° 34° (NE) 2,818 4.9 -11.7°
